[[{"header":{"parameterUnit":"m.s-1","parameterCategory":1,"la1":30.2991,"la2":30.254,"lo1":-89.0895,"lo2":-89.0444,"dy":0.0017,"dx":0.0017,"nx":28,"ny":28,"refTime":"2024-06-24T21:00:00:Z","depth":0,"parameterNumber":2,"parameterNumberName":"U-component_of_WINDS"},"data":[0,0,0,0,0,0,0,0,0,0,0,0,0,0,0,0,0,0,0,0,0,0,0,0,0,0,0,0,0,0,0,0,0,0,0,0,0,0,0,0,0,0,0,0,0,0,0,0,0,0,0,0,0,0,0,0,0,0,1.2383,1.2388,0,1.285,1.2855,1.2861,1.3129,1.313,1.3131,1.3132,1.3613,1.3625,1.3637,0,0,0,0,0,0,0,0,0,0,0,0,0,1.1725,1.1736,1.2382,1.2388,1.2394,1.2849,1.2856,1.2862,1.3129,1.313,1.3131,1.3132,1.361,1.3624,1.3638,0,0,0,0,0,0,0,0,0,0,0,0,0,1.2083,1.1739,1.2381,1.2582,1.2604,1.2848,1.2856,1.2864,1.3128,1.313,1.3131,1.3133,1.3605,1.3622,1.364,1.3721,0,0,1.3694,1.3702,0,0,0,0,0,0,0,0,1.2062,1.2107,1.2547,1.2568,1.2594,1.2933,1.2801,1.3151,1.3128,1.2929,1.3132,1.3133,1.3386,1.3422,1.3507,1.3744,1.3764,1.3696,1.3707,1.3715,1.372,0,0,0,0,0,0,0,1.2037,1.2088,1.2568,1.2553,1.2582,1.265,1.2702,1.2869,1.3144,1.2947,1.2967,1.3019,1.3399,1.3488,1.352,1.3771,1.3696,1.3711,1.3723,1.373,1.4101,1.4101,0,0,0,0,0,0,1.198,1.2066,1.2553,1.2582,1.2326,1.266,1.2719,1.2822,1.3143,1.3193,1.3017,1.303,1.3457,1.3499,1.3538,1.3656,1.3714,1.3731,1.3742,1.4102,1.4101,1.41,0,0,0,0,0,0,1.1965,1.2021,1.2534,1.233,1.24,1.267,1.2784,1.2831,1.2921,1.3196,1.3247,1.3057,1.346,1.3513,1.3674,1.3676,1.3739,1.3756,1.4103,1.4102,1.4101,1.389,0,0,0,0,0,0,1.1945,1.2014,1.2046,1.2328,1.241,1.266,1.2784,1.2839,1.295,1.2971,1.3247,1.3294,1.3465,1.3646,1.3691,1.3702,1.377,1.4104,1.4103,1.4101,1.3898,1.3881,1.3867,0,0,0,0,0,1.192,1.1968,1.2046,1.2104,1.2456,1.266,1.2707,1.2901,1.2949,1.2985,1.3162,1.3286,1.3668,1.366,1.3714,1.3729,1.4105,1.4103,1.4101,1.3905,1.3885,1.3868,0,0,0,0,0,0,1.1681,1.2009,1.2099,1.224,1.2419,1.2704,1.2755,1.2873,1.3044,1.3057,1.3292,1.3352,1.3491,1.3627,1.3612,1.3826,1.39,1.3909,1.3732,1.3716,1.37,1.3665,1.3784,0,0,0,0,0,1.1643,1.178,1.2061,1.2158,1.2243,1.2482,1.2579,1.2713,1.291,1.2987,1.3177,1.3363,1.3527,1.3629,1.3793,1.3919,1.3984,1.3956,1.3941,1.3927,1.3932,1.4011,1.4002,1.4094,1.4094,1.4094,0,0,1.157,1.1766,1.1838,1.2114,1.227,1.2407,1.2545,1.2685,1.279,1.3009,1.3173,1.3318,1.3543,1.3686,1.3759,1.3804,1.3921,1.3925,1.3911,1.3925,1.4008,1.3999,1.399,1.4093,1.4093,1.4093,0,0,1.1505,1.1666,1.1766,1.1918,1.2151,1.2311,1.2334,1.2602,1.2706,1.2874,1.3042,1.3171,1.3446,1.36,1.3713,1.3707,1.3828,1.3754,1.3675,1.3749,1.3742,1.3737,1.3736,1.3733,1.3758,1.3758,1.3758,0,1.1384,1.1597,1.1802,1.1933,1.205,1.2254,1.2357,1.2496,1.277,1.2847,1.2893,1.3243,1.3409,1.3592,1.359,1.3675,1.3711,1.3724,1.3726,1.3723,1.3721,1.3723,1.3722,1.3748,1.3749,1.375,1.3751,0,1.1437,1.1582,1.1635,1.1894,1.2017,1.2133,1.2357,1.2458,1.2581,1.2736,1.2905,1.3111,1.3321,1.3375,1.3497,1.3576,1.3597,1.3681,1.376,1.3698,1.3704,1.3707,1.3733,1.3736,1.374,1.3742,0,0,1.1235,1.1606,1.1622,1.1743,1.2015,1.2132,1.2258,1.2463,1.2545,1.2728,1.2841,1.3069,1.3149,1.3277,1.3419,1.3483,1.3467,1.3561,1.357,1.3537,1.3569,1.3504,1.3502,1.3549,1.355,1.355,1.3551,0,1.1211,1.1445,1.1634,1.1798,1.1936,1.2132,1.2242,1.2421,1.2569,1.2709,1.2874,1.3032,1.3124,1.3204,1.3276,1.3453,1.3477,1.3456,1.3658,1.3662,1.3595,1.3505,1.3438,1.3428,1.3554,1.3555,1.3555,0,1.1214,1.1388,1.1565,1.1824,1.189,1.1984,1.2189,1.2319,1.2527,1.2631,1.2774,1.2922,1.3066,1.313,1.3332,1.3313,1.3408,1.3507,1.3512,1.3539,1.3605,1.353,1.3429,1.3427,1.3561,1.356,1.356,0,1.105,1.1329,1.1472,1.1569,1.1874,1.1937,1.2067,1.2277,1.2389,1.2567,1.2643,1.2835,1.2941,1.3088,1.3284,1.3313,1.3467,1.3547,1.3558,1.3553,1.3583,1.3578,1.3495,1.364,1.364,1.364,1.364,0,1.1004,1.1105,1.1402,1.149,1.161,1.1826,1.1939,1.2087,1.2272,1.2393,1.2575,1.2685,1.2937,1.3078,1.3233,1.3378,1.3424,1.3513,1.3553,1.3498,1.3486,1.3563,1.3569,1.364,1.364,1.364,1.364,0,1.0841,1.1044,1.1213,1.1487,1.1559,1.1635,1.1872,1.1966,1.2123,1.2275,1.2323,1.2571,1.2747,1.2957,1.3201,1.3306,1.3437,1.3496,1.3366,1.3389,1.3389,1.3386,1.3354,1.3361,1.3497,1.3495,1.3494,0,1.0798,1.0881,1.1164,1.1258,1.1382,1.1531,1.1646,1.1862,1.1975,1.2219,1.2283,1.2472,1.2635,1.2907,1.3111,1.3299,1.3365,1.3341,1.3395,1.3337,1.3367,1.3359,1.337,1.3326,1.3324,1.3321,1.332,0,1.0702,1.0798,1.0956,1.1148,1.1279,1.1442,1.1613,1.1679,1.1931,1.2049,1.223,1.2356,1.2605,1.2791,1.3005,1.3143,1.3274,1.3301,1.3314,1.3258,1.318,1.3224,1.3328,1.3301,1.3303,1.3304,1.3305,1.3306,1.06,1.0683,1.0895,1.1065,1.1215,1.137,1.1472,1.1642,1.1797,1.2015,1.2135,1.2313,1.2522,1.2823,1.2955,1.3099,1.3146,1.3163,1.3169,1.317,1.3154,1.3155,1.3139,1.314,1.3141,1.3141,1.3142,0,1.0514,1.066,1.0814,1.1046,1.118,1.129,1.1484,1.1589,1.1744,1.1926,1.2083,1.2292,1.2474,1.2691,1.2888,1.2962,1.3027,1.3006,1.3003,1.3033,1.3101,1.307,1.295,1.295,1.295,1.295,1.295,1.295,1.0485,1.0631,1.0752,1.0976,1.1123,1.1298,1.14,1.1544,1.1692,1.1916,1.2067,1.2207,1.2405,1.2618,1.279,1.285,1.2914,1.2875,1.2953,1.3012,1.3028,1.3044,1.3017,1.2887,1.2887,1.2874,1.2874,1.2874]},{"header":{"parameterUnit":"m.s-1","parameterCategory":1,"la1":30.2991,"la2":30.254,"lo1":-89.0895,"lo2":-89.0444,"dy":0.0017,"dx":0.0017,"nx":28,"ny":28,"refTime":"2024-06-24T21:00:00:Z","depth":0,"parameterNumber":3,"parameterNumberName":"V-component_of_WINDS"},"data":[0,0,0,0,0,0,0,0,0,0,0,0,0,0,0,0,0,0,0,0,0,0,0,0,0,0,0,0,0,0,0,0,0,0,0,0,0,0,0,0,0,0,0,0,0,0,0,0,0,0,0,0,0,0,0,0,0,0,-0.9945,-0.9944,0,-0.9844,-0.9843,-0.9842,-0.9797,-0.9797,-0.9797,-0.9797,-0.9687,-0.9684,-0.9681,0,0,0,0,0,0,0,0,0,0,0,0,0,-1.0092,-1.009,-0.9945,-0.9944,-0.9942,-0.9844,-0.9843,-0.9841,-0.9797,-0.9797,-0.9797,-0.9797,-0.9688,-0.9684,-0.9681,0,0,0,0,0,0,0,0,0,0,0,0,0,-1.0013,-1.0089,-0.9945,-0.9908,-0.9904,-0.9844,-0.9843,-0.9841,-0.9797,-0.9797,-0.9797,-0.9797,-0.9689,-0.9685,-0.968,-0.9647,0,0,-0.9666,-0.9664,0,0,0,0,0,0,0,0,-1.0018,-1.0008,-0.9915,-0.9911,-0.9906,-0.9833,-0.9854,-0.9776,-0.9796,-0.9837,-0.9797,-0.9797,-0.9735,-0.9727,-0.9707,-0.9642,-0.9637,-0.9666,-0.9663,-0.9661,-0.966,0,0,0,0,0,0,0,-1.0023,-1.0012,-0.9905,-0.9914,-0.9908,-0.9895,-0.9884,-0.9839,-0.9786,-0.9834,-0.983,-0.9819,-0.9732,-0.9712,-0.9704,-0.9636,-0.9666,-0.9662,-0.9659,-0.9657,-0.9538,-0.9538,0,0,0,0,0,0,-1.0036,-1.0017,-0.9908,-0.9902,-0.9964,-0.9892,-0.988,-0.9856,-0.9786,-0.9776,-0.9819,-0.9817,-0.9719,-0.9709,-0.97,-0.9657,-0.9661,-0.9657,-0.9654,-0.9539,-0.9538,-0.9538,0,0,0,0,0,0,-1.0039,-1.0027,-0.9912,-0.9958,-0.9943,-0.9889,-0.9863,-0.9854,-0.9833,-0.9775,-0.9765,-0.9808,-0.9719,-0.9706,-0.9661,-0.9652,-0.9654,-0.965,-0.9539,-0.9539,-0.9538,-0.957,0,0,0,0,0,0,-1.0044,-1.0028,-1.0017,-0.9959,-0.9941,-0.9877,-0.9863,-0.9852,-0.9826,-0.9823,-0.9762,-0.9752,-0.9718,-0.9668,-0.9657,-0.9646,-0.9647,-0.954,-0.9539,-0.9538,-0.957,-0.9571,-0.9572,0,0,0,0,0,-1.0049,-1.0028,-1.0016,-1.0003,-0.9925,-0.9876,-0.9866,-0.9829,-0.9826,-0.9813,-0.9775,-0.9754,-0.9655,-0.9664,-0.965,-0.9638,-0.954,-0.9539,-0.9538,-0.9569,-0.9571,-0.9572,0,0,0,0,0,0,-1.0084,-1.002,-1.0006,-0.9966,-0.9928,-0.9869,-0.9851,-0.9832,-0.9791,-0.979,-0.9744,-0.9731,-0.9689,-0.9659,-0.967,-0.9603,-0.9596,-0.9592,-0.9624,-0.9625,-0.9626,-0.9633,-0.9643,0,0,0,0,0,-1.0088,-1.0056,-1.0,-0.997,-0.9952,-0.9905,-0.9882,-0.9858,-0.9815,-0.9798,-0.9757,-0.9714,-0.9673,-0.9647,-0.9607,-0.9565,-0.9551,-0.955,-0.9551,-0.9552,-0.9549,-0.9525,-0.9524,-0.9535,-0.9535,-0.9535,0,0,-1.0094,-1.0055,-1.0037,-0.9976,-0.9943,-0.9909,-0.9892,-0.9856,-0.9829,-0.9791,-0.9747,-0.9715,-0.9664,-0.9621,-0.96,-0.9595,-0.9543,-0.9551,-0.9553,-0.9549,-0.9524,-0.9523,-0.9522,-0.9534,-0.9534,-0.9534,0,0,-1.0087,-1.0055,-1.0027,-0.9995,-0.9946,-0.9915,-0.9909,-0.9853,-0.9832,-0.9787,-0.9757,-0.9724,-0.9655,-0.962,-0.9593,-0.9574,-0.9553,-0.9562,-0.9567,-0.9544,-0.9543,-0.9542,-0.9534,-0.9532,-0.956,-0.956,-0.956,0,-1.01,-1.005,-1.0014,-0.998,-0.9954,-0.9921,-0.989,-0.986,-0.98,-0.9781,-0.9777,-0.969,-0.9653,-0.9601,-0.9597,-0.9577,-0.9566,-0.9568,-0.9546,-0.9545,-0.9543,-0.9535,-0.9533,-0.9561,-0.9561,-0.9561,-0.9561,0,-1.0068,-1.0033,-1.0015,-0.9961,-0.9932,-0.99,-0.9858,-0.9833,-0.9811,-0.9781,-0.9734,-0.969,-0.9639,-0.9625,-0.9602,-0.9569,-0.9568,-0.9556,-0.9547,-0.9544,-0.9536,-0.9533,-0.9563,-0.9563,-0.9562,-0.9562,0,0,-1.008,-1.0007,-1.0001,-0.9975,-0.9919,-0.9891,-0.9857,-0.981,-0.9789,-0.9748,-0.9718,-0.9661,-0.9649,-0.9619,-0.9592,-0.9571,-0.9558,-0.9561,-0.9559,-0.9562,-0.9518,-0.9527,-0.9525,-0.9544,-0.9544,-0.9543,-0.9522,0,-1.0065,-1.0005,-0.9972,-0.9925,-0.9892,-0.986,-0.983,-0.9792,-0.9762,-0.9728,-0.9694,-0.9654,-0.9642,-0.9624,-0.9602,-0.9565,-0.9549,-0.9566,-0.9513,-0.9512,-0.9527,-0.9521,-0.953,-0.9513,-0.9519,-0.9519,-0.9518,0,-1.004,-1.0002,-0.9953,-0.9901,-0.9886,-0.986,-0.9814,-0.9783,-0.9738,-0.9717,-0.9684,-0.9658,-0.9619,-0.9615,-0.9559,-0.9572,-0.9548,-0.9527,-0.9525,-0.9518,-0.9514,-0.9512,-0.9506,-0.9503,-0.9513,-0.9513,-0.9514,0,-1.0053,-0.999,-0.9952,-0.9931,-0.987,-0.9853,-0.9826,-0.9781,-0.9755,-0.9714,-0.9697,-0.9651,-0.9626,-0.9591,-0.9552,-0.9553,-0.95,-0.9493,-0.9481,-0.9482,-0.947,-0.9471,-0.9459,-0.9457,-0.9457,-0.9457,-0.9457,0,-1.0039,-1.001,-0.9957,-0.9934,-0.99,-0.9861,-0.9828,-0.9798,-0.9759,-0.9728,-0.9697,-0.9668,-0.9619,-0.9583,-0.9552,-0.9511,-0.9499,-0.9481,-0.9473,-0.9483,-0.9485,-0.9466,-0.9466,-0.9456,-0.9456,-0.9456,-0.9457,0,-1.0048,-1.0011,-0.9968,-0.9914,-0.99,-0.9877,-0.983,-0.9805,-0.9774,-0.9735,-0.9724,-0.9675,-0.9631,-0.959,-0.953,-0.951,-0.9468,-0.9458,-0.9484,-0.9479,-0.9469,-0.947,-0.9444,-0.9438,-0.944,-0.944,-0.9441,0,-1.0041,-1.0019,-0.9963,-0.9941,-0.9916,-0.9881,-0.9854,-0.9815,-0.9789,-0.9736,-0.9717,-0.9672,-0.9634,-0.9566,-0.9523,-0.9478,-0.9466,-0.946,-0.9458,-0.947,-0.9465,-0.9466,-0.9463,-0.946,-0.946,-0.9461,-0.9461,0,-1.0034,-1.0017,-0.9982,-0.994,-0.9911,-0.9875,-0.9839,-0.9822,-0.9775,-0.9747,-0.9704,-0.9674,-0.9615,-0.957,-0.952,-0.949,-0.9467,-0.9462,-0.9456,-0.9466,-0.9482,-0.9472,-0.9486,-0.9462,-0.9462,-0.9462,-0.9462,-0.9462,-1.0033,-1.0012,-0.997,-0.9931,-0.99,-0.9867,-0.9841,-0.9808,-0.9772,-0.9722,-0.9701,-0.9657,-0.9611,-0.9542,-0.9513,-0.9476,-0.947,-0.9463,-0.9461,-0.9459,-0.9461,-0.9489,-0.9467,-0.9467,-0.9466,-0.9466,-0.9466,0,-1.0023,-0.9995,-0.9961,-0.9912,-0.9881,-0.9865,-0.9824,-0.9798,-0.9761,-0.9722,-0.9685,-0.9635,-0.9591,-0.9546,-0.9499,-0.9479,-0.9467,-0.9468,-0.9468,-0.9461,-0.9469,-0.9478,-0.9478,-0.9478,-0.9478,-0.9478,-0.9478,-0.9478,-1.0015,-0.9977,-0.9955,-0.9901,-0.9872,-0.983,-0.9808,-0.9777,-0.9745,-0.9691,-0.9656,-0.9628,-0.9585,-0.9536,-0.9494,-0.9482,-0.9466,-0.9469,-0.9454,-0.9461,-0.9461,-0.946,-0.9468,-0.9466,-0.9466,-0.9449,-0.9449,-0.9449]}]]